When you browse on this site, cookies collect data to enhance your experience and personalize the content and advertising you see.
Visit our Privacy Policy to learn more. By continuing to use the site, you agree to this use of cookies and data.
  • In Hungary
  • List of Countries
  • For 7 days
  • Water Temperature
  • Satellite Maps
  • Weather Map
  • News
  • Weather Widgets
  • user-avatar
    Login

    Hourly Weather Idzhewan

    Today, 21 April, Sunday

    Time Temperature Precipitation Wind Pressure Humidity
    00:00 +2°C° 0 mm 1 mps 691 mmHg 90%
    01:00 +1°C° 0 mm 0 mps 691 mmHg 91%
    02:00 +1°C° 0 mm 0 mps 691 mmHg 92%
    03:00 +4°C° 0 mm 1 mps 691 mmHg 93%
    04:00 +4°C° 0.1 mm 1 mps 691 mmHg 93%
    05:00 +4°C° 0.1 mm 1 mps 691 mmHg 93%
    06:00 +4°C° 0.1 mm 1 mps 691 mmHg 93%
    07:00 +4°C° 0.3 mm 2 mps 691 mmHg 89%
    08:00 +4°C° 0.3 mm 2 mps 691 mmHg 86%
    09:00 +5°C° 0.3 mm 2 mps 691 mmHg 83%
    10:00 +5°C° 0.2 mm 3 mps 691 mmHg 81%
    11:00 +5°C° 0.2 mm 3 mps 691 mmHg 79%
    12:00 +7°C° 0.2 mm 3 mps 690 mmHg 77%
    13:00 +7°C° 0.2 mm 3 mps 690 mmHg 78%
    14:00 +7°C° 0.2 mm 3 mps 690 mmHg 78%
    15:00 +7°C° 0.2 mm 3 mps 689 mmHg 79%
    16:00 +5°C° 0.2 mm 3 mps 689 mmHg 81%
    17:00 +6°C° 0.2 mm 2 mps 690 mmHg 84%
    18:00 +6°C° 0.2 mm 2 mps 690 mmHg 86%
    19:00 +5°C° 0.4 mm 2 mps 690 mmHg 88%
    20:00 +6°C° 0.4 mm 1 mps 691 mmHg 90%
    21:00 +5°C° 0.4 mm 1 mps 691 mmHg 92%
    22:00 +5°C° 0.2 mm 1 mps 692 mmHg 93%
    23:00 +5°C° 0.2 mm 1 mps 692 mmHg 94%

    Tomorrow, 22 April, Monday

    Time Temperature Precipitation Wind Pressure Humidity
    00:00 +4°C° 0.2 mm 1 mps 692 mmHg 95%
    01:00 +4°C° 0.1 mm 1 mps 692 mmHg 96%
    02:00 +3°C° 0.1 mm 2 mps 692 mmHg 97%
    03:00 +3°C° 0.1 mm 2 mps 692 mmHg 97%
    04:00 +3°C° 0.2 mm 2 mps 692 mmHg 97%
    05:00 +3°C° 0.2 mm 2 mps 692 mmHg 97%
    06:00 +3°C° 0.2 mm 2 mps 692 mmHg 96%
    07:00 +3°C° 0.2 mm 2 mps 692 mmHg 95%
    08:00 +4°C° 0.2 mm 2 mps 691 mmHg 93%
    09:00 +4°C° 0.2 mm 2 mps 691 mmHg 92%
    10:00 +5°C° 0.1 mm 2 mps 691 mmHg 89%
    11:00 +5°C° 0.1 mm 2 mps 691 mmHg 86%
    12:00 +6°C° 0.1 mm 2 mps 690 mmHg 83%
    13:00 +7°C° 0.1 mm 2 mps 690 mmHg 82%
    14:00 +7°C° 0.1 mm 2 mps 690 mmHg 80%
    15:00 +7°C° 0.1 mm 3 mps 690 mmHg 78%
    16:00 +7°C° 0 mm 2 mps 690 mmHg 79%
    17:00 +7°C° 0 mm 2 mps 690 mmHg 80%
    18:00 +7°C° 0 mm 2 mps 691 mmHg 81%
    19:00 +6°C° 0 mm 1 mps 691 mmHg 82%
    20:00 +5°C° 0 mm 1 mps 692 mmHg 84%
    21:00 +4°C° 0 mm 1 mps 693 mmHg 86%
    22:00 +4°C° 0 mm 1 mps 693 mmHg 87%
    23:00 +4°C° 0 mm 1 mps 694 mmHg 87%

    Day after tomorrow, 23 April, Tuesday

    Time Temperature Precipitation Wind Pressure Humidity
    00:00 +4°C° 0 mm 1 mps 694 mmHg 88%
    01:00 +4°C° 0 mm 1 mps 694 mmHg 88%
    02:00 +4°C° 0 mm 1 mps 695 mmHg 89%
    03:00 +4°C° 0 mm 1 mps 695 mmHg 89%
    04:00 +4°C° 0 mm 1 mps 695 mmHg 88%
    05:00 +4°C° 0 mm 1 mps 695 mmHg 87%
    06:00 +4°C° 0 mm 1 mps 696 mmHg 86%
    07:00 +6°C° 0 mm 1 mps 696 mmHg 81%
    08:00 +7°C° 0 mm 1 mps 696 mmHg 77%
    09:00 +9°C° 0 mm 1 mps 696 mmHg 73%
    10:00 +8°C° 0.1 mm 2 mps 696 mmHg 72%
    11:00 +9°C° 0.1 mm 2 mps 696 mmHg 71%
    12:00 +10°C° 0.1 mm 2 mps 696 mmHg 70%
    13:00 +10°C° 0.1 mm 2 mps 696 mmHg 70%
    14:00 +10°C° 0.1 mm 2 mps 696 mmHg 69%
    15:00 +12°C° 0.1 mm 2 mps 696 mmHg 69%
    16:00 +10°C° 0.1 mm 2 mps 696 mmHg 72%
    17:00 +11°C° 0.1 mm 1 mps 696 mmHg 74%
    18:00 +10°C° 0.1 mm 1 mps 696 mmHg 77%
    19:00 +9°C° 0.1 mm 1 mps 697 mmHg 79%
    20:00 +7°C° 0.1 mm 0 mps 697 mmHg 81%
    21:00 +6°C° 0.1 mm 0 mps 698 mmHg 83%
    22:00 +6°C° 0.1 mm 0 mps 698 mmHg 86%
    23:00 +6°C° 0.1 mm 0 mps 699 mmHg 88%

    24 April, Wednesday

    Time Temperature Precipitation Wind Pressure Humidity
    00:00 +7°C° 0.1 mm 1 mps 699 mmHg 91%
    01:00 +6°C° 0.1 mm 1 mps 699 mmHg 93%
    02:00 +6°C° 0.1 mm 1 mps 699 mmHg 95%
    03:00 +6°C° 0.1 mm 1 mps 699 mmHg 96%
    04:00 +6°C° 0 mm 1 mps 699 mmHg 96%
    05:00 +6°C° 0 mm 1 mps 700 mmHg 95%
    06:00 +6°C° 0 mm 1 mps 700 mmHg 95%
    07:00 +7°C° 0 mm 1 mps 700 mmHg 90%
    08:00 +8°C° 0 mm 1 mps 700 mmHg 85%
    09:00 +9°C° 0 mm 1 mps 699 mmHg 80%
    10:00 +10°C° 0 mm 1 mps 699 mmHg 77%
    11:00 +11°C° 0 mm 1 mps 698 mmHg 73%
    12:00 +11°C° 0 mm 1 mps 698 mmHg 70%
    13:00 +12°C° 0.1 mm 2 mps 697 mmHg 69%
    14:00 +12°C° 0.1 mm 2 mps 697 mmHg 68%
    15:00 +13°C° 0.1 mm 2 mps 697 mmHg 66%
    16:00 +12°C° 0.2 mm 2 mps 697 mmHg 70%
    17:00 +12°C° 0.2 mm 1 mps 697 mmHg 74%
    18:00 +11°C° 0.2 mm 1 mps 697 mmHg 78%
    19:00 +10°C° 0.1 mm 1 mps 697 mmHg 79%
    20:00 +9°C° 0.1 mm 1 mps 698 mmHg 81%
    21:00 +8°C° 0.1 mm 1 mps 698 mmHg 82%
    22:00 +8°C° 0 mm 1 mps 698 mmHg 83%
    23:00 +7°C° 0 mm 1 mps 698 mmHg 83%

    25 April, Thursday

    Time Temperature Precipitation Wind Pressure Humidity
    00:00 +7°C° 0 mm 1 mps 698 mmHg 84%
    01:00 +6°C° 0 mm 1 mps 698 mmHg 85%
    02:00 +6°C° 0 mm 1 mps 698 mmHg 86%
    03:00 +5°C° 0 mm 1 mps 698 mmHg 87%
    04:00 +6°C° 0 mm 1 mps 699 mmHg 86%
    05:00 +5°C° 0 mm 2 mps 699 mmHg 84%
    06:00 +5°C° 0 mm 2 mps 699 mmHg 83%
    07:00 +7°C° 0 mm 2 mps 699 mmHg 75%
    08:00 +10°C° 0 mm 1 mps 699 mmHg 67%
    09:00 +12°C° 0 mm 1 mps 699 mmHg 59%
    10:00 +13°C° 0 mm 1 mps 699 mmHg 56%
    11:00 +14°C° 0 mm 2 mps 699 mmHg 53%
    12:00 +15°C° 0 mm 2 mps 698 mmHg 50%
    13:00 +16°C° 0.1 mm 2 mps 698 mmHg 50%
    14:00 +16°C° 0.1 mm 2 mps 698 mmHg 50%
    15:00 +16°C° 0.1 mm 2 mps 698 mmHg 50%
    16:00 +15°C° 0.1 mm 2 mps 698 mmHg 54%
    17:00 +14°C° 0.1 mm 2 mps 698 mmHg 59%
    18:00 +14°C° 0.1 mm 1 mps 698 mmHg 63%
    19:00 +12°C° 0 mm 1 mps 698 mmHg 65%
    20:00 +11°C° 0 mm 1 mps 699 mmHg 67%
    21:00 +9°C° 0 mm 1 mps 699 mmHg 69%
    22:00 +9°C° 0 mm 1 mps 699 mmHg 70%
    23:00 +8°C° 0 mm 1 mps 699 mmHg 72%

    26 April, Friday

    Time Temperature Precipitation Wind Pressure Humidity
    00:00 +8°C° 0 mm 1 mps 699 mmHg 73%
    01:00 +8°C° 0 mm 1 mps 699 mmHg 75%
    02:00 +7°C° 0 mm 1 mps 699 mmHg 77%
    03:00 +7°C° 0 mm 1 mps 699 mmHg 79%
    04:00 +7°C° 0 mm 1 mps 699 mmHg 78%
    05:00 +7°C° 0 mm 1 mps 699 mmHg 77%
    06:00 +8°C° 0 mm 1 mps 699 mmHg 76%
    07:00 +10°C° 0 mm 1 mps 699 mmHg 70%
    08:00 +10°C° 0 mm 2 mps 699 mmHg 64%
    09:00 +13°C° 0 mm 2 mps 699 mmHg 58%
    10:00 +14°C° 0 mm 2 mps 699 mmHg 56%
    11:00 +14°C° 0 mm 3 mps 698 mmHg 53%
    12:00 +16°C° 0 mm 3 mps 698 mmHg 51%
    13:00 +17°C° 0 mm 3 mps 698 mmHg 51%
    14:00 +17°C° 0 mm 3 mps 697 mmHg 52%
    15:00 +17°C° 0 mm 3 mps 697 mmHg 52%
    16:00 +16°C° 0 mm 3 mps 697 mmHg 57%
    17:00 +15°C° 0 mm 2 mps 697 mmHg 61%
    18:00 +14°C° 0 mm 2 mps 697 mmHg 66%
    19:00 +13°C° 0 mm 2 mps 697 mmHg 70%
    20:00 +11°C° 0 mm 1 mps 697 mmHg 75%
    21:00 +10°C° 0 mm 1 mps 697 mmHg 79%
    22:00 +9°C° 0 mm 1 mps 697 mmHg 80%
    23:00 +9°C° 0 mm 1 mps 697 mmHg 81%
    Show more